• In Hungary
  • List of Countries
  • For 7 days
  • Water Temperature
  • Satellite Maps
  • Weather Map
  • News
  • Weather Widgets
  • user-avatar
    Login

    Hourly Weather Potosi

    Today, 19 December, Tuesday

    Time Temperature Precipitation Wind Pressure Humidity
    00:00 +7°C° 0.1 mm 3 mps 468 mmHg 79%
    01:00 +7°C° 0.1 mm 3 mps 468 mmHg 79%
    02:00 +6°C° 0.1 mm 2 mps 468 mmHg 80%
    03:00 +6°C° 0 mm 2 mps 468 mmHg 81%
    04:00 +6°C° 0 mm 2 mps 467 mmHg 82%
    05:00 +6°C° 0 mm 2 mps 467 mmHg 82%
    06:00 +6°C° 0.1 mm 2 mps 468 mmHg 80%
    07:00 +6°C° 0.1 mm 2 mps 468 mmHg 77%
    08:00 +6°C° 0.1 mm 2 mps 469 mmHg 74%
    09:00 +8°C° 0.1 mm 3 mps 470 mmHg 67%
    10:00 +9°C° 0.1 mm 3 mps 470 mmHg 61%
    11:00 +10°C° 0.1 mm 4 mps 471 mmHg 55%
    12:00 +11°C° 0.2 mm 4 mps 471 mmHg 52%
    13:00 +12°C° 0.2 mm 5 mps 471 mmHg 50%
    14:00 +13°C° 0.2 mm 6 mps 471 mmHg 48%
    15:00 +11°C° 0.2 mm 6 mps 470 mmHg 51%
    16:00 +11°C° 0.2 mm 6 mps 469 mmHg 53%
    17:00 +10°C° 0.2 mm 6 mps 468 mmHg 56%
    18:00 +9°C° 0.2 mm 5 mps 468 mmHg 61%
    19:00 +8°C° 0.2 mm 5 mps 468 mmHg 66%
    20:00 +7°C° 0.2 mm 4 mps 468 mmHg 71%
    21:00 +8°C° 0.1 mm 3 mps 468 mmHg 72%
    22:00 +8°C° 0.1 mm 3 mps 468 mmHg 74%
    23:00 +7°C° 0.1 mm 2 mps 468 mmHg 76%

    Tomorrow, 20 December, Wednesday

    Time Temperature Precipitation Wind Pressure Humidity
    00:00 +7°C° 0 mm 2 mps 468 mmHg 77%
    01:00 +7°C° 0 mm 2 mps 467 mmHg 78%
    02:00 +7°C° 0 mm 2 mps 467 mmHg 78%
    03:00 +6°C° 0 mm 2 mps 467 mmHg 79%
    04:00 +6°C° 0 mm 2 mps 467 mmHg 79%
    05:00 +6°C° 0 mm 2 mps 466 mmHg 79%
    06:00 +7°C° 0 mm 2 mps 467 mmHg 77%
    07:00 +7°C° 0 mm 2 mps 467 mmHg 74%
    08:00 +7°C° 0 mm 2 mps 468 mmHg 71%
    09:00 +9°C° 0 mm 2 mps 468 mmHg 65%
    10:00 +10°C° 0 mm 3 mps 469 mmHg 59%
    11:00 +11°C° 0 mm 3 mps 470 mmHg 53%
    12:00 +12°C° 0.1 mm 4 mps 470 mmHg 51%
    13:00 +13°C° 0.1 mm 4 mps 469 mmHg 48%
    14:00 +14°C° 0.1 mm 5 mps 469 mmHg 45%
    15:00 +13°C° 0.3 mm 5 mps 469 mmHg 48%
    16:00 +13°C° 0.3 mm 5 mps 468 mmHg 51%
    17:00 +12°C° 0.3 mm 5 mps 467 mmHg 54%
    18:00 +11°C° 0.8 mm 4 mps 467 mmHg 60%
    19:00 +10°C° 0.8 mm 4 mps 467 mmHg 65%
    20:00 +8°C° 0.8 mm 4 mps 466 mmHg 71%
    21:00 +9°C° 1.7 mm 3 mps 466 mmHg 74%
    22:00 +8°C° 1.7 mm 2 mps 466 mmHg 77%
    23:00 +8°C° 1.7 mm 2 mps 466 mmHg 80%

    Day after tomorrow, 21 December, Thursday

    Time Temperature Precipitation Wind Pressure Humidity
    00:00 +8°C° 1 mm 2 mps 466 mmHg 80%
    01:00 +8°C° 1 mm 2 mps 466 mmHg 80%
    02:00 +8°C° 1 mm 2 mps 465 mmHg 80%
    03:00 +8°C° 0.3 mm 2 mps 465 mmHg 80%
    04:00 +8°C° 0.3 mm 2 mps 465 mmHg 80%
    05:00 +8°C° 0.3 mm 2 mps 465 mmHg 80%
    06:00 +9°C° 0.1 mm 1 mps 466 mmHg 78%
    07:00 +9°C° 0.1 mm 1 mps 466 mmHg 76%
    08:00 +10°C° 0.1 mm 1 mps 467 mmHg 74%
    09:00 +10°C° 0.4 mm 2 mps 467 mmHg 68%
    10:00 +12°C° 0.4 mm 2 mps 468 mmHg 62%
    11:00 +13°C° 0.4 mm 2 mps 468 mmHg 57%
    12:00 +12°C° 1.4 mm 3 mps 468 mmHg 56%
    13:00 +13°C° 1.4 mm 3 mps 468 mmHg 56%
    14:00 +13°C° 1.4 mm 4 mps 467 mmHg 56%
    15:00 +12°C° 2.2 mm 4 mps 466 mmHg 61%
    16:00 +11°C° 2.2 mm 4 mps 466 mmHg 67%
    17:00 +10°C° 2.2 mm 4 mps 465 mmHg 72%
    18:00 +10°C° 1.7 mm 3 mps 465 mmHg 75%
    19:00 +9°C° 1.7 mm 3 mps 465 mmHg 77%
    20:00 +9°C° 1.7 mm 2 mps 465 mmHg 80%
    21:00 +8°C° 1.1 mm 2 mps 466 mmHg 81%
    22:00 +8°C° 1.1 mm 2 mps 466 mmHg 81%
    23:00 +8°C° 1.1 mm 2 mps 466 mmHg 82%

    22 December, Friday

    Time Temperature Precipitation Wind Pressure Humidity
    00:00 +8°C° 1.8 mm 2 mps 466 mmHg 84%
    01:00 +7°C° 1.8 mm 2 mps 465 mmHg 85%
    02:00 +7°C° 1.8 mm 2 mps 465 mmHg 87%
    03:00 +6°C° 2.8 mm 2 mps 464 mmHg 88%
    04:00 +6°C° 2.8 mm 2 mps 464 mmHg 89%
    05:00 +6°C° 2.8 mm 2 mps 464 mmHg 89%
    06:00 +6°C° 2.1 mm 2 mps 464 mmHg 89%
    07:00 +6°C° 2.1 mm 2 mps 464 mmHg 89%
    08:00 +6°C° 2.1 mm 2 mps 465 mmHg 89%
    09:00 +6°C° 0.8 mm 2 mps 465 mmHg 86%
    10:00 +7°C° 0.8 mm 2 mps 465 mmHg 84%
    11:00 +7°C° 0.8 mm 2 mps 465 mmHg 81%
    12:00 +8°C° 0.4 mm 2 mps 465 mmHg 78%
    13:00 +9°C° 0.4 mm 2 mps 465 mmHg 74%
    14:00 +9°C° 0.4 mm 2 mps 465 mmHg 70%
    15:00 +10°C° 0.3 mm 2 mps 465 mmHg 68%
    16:00 +10°C° 0.3 mm 2 mps 465 mmHg 65%
    17:00 +12°C° 0.3 mm 2 mps 465 mmHg 63%
    18:00 +11°C° 0.6 mm 1 mps 465 mmHg 66%
    19:00 +11°C° 0.6 mm 1 mps 465 mmHg 69%
    20:00 +10°C° 0.6 mm 1 mps 466 mmHg 72%
    21:00 +10°C° 0.5 mm 1 mps 466 mmHg 74%
    22:00 +10°C° 0.5 mm 1 mps 466 mmHg 76%
    23:00 +9°C° 0.5 mm 1 mps 466 mmHg 79%

    23 December, Saturday

    Time Temperature Precipitation Wind Pressure Humidity
    00:00 +9°C° 0.6 mm 1 mps 466 mmHg 80%
    01:00 +9°C° 0.6 mm 1 mps 465 mmHg 80%
    02:00 +7°C° 0.6 mm 2 mps 465 mmHg 81%
    03:00 +8°C° 0.9 mm 1 mps 465 mmHg 81%
    04:00 +8°C° 0.9 mm 1 mps 465 mmHg 81%
    05:00 +8°C° 0.9 mm 1 mps 464 mmHg 80%
    06:00 +8°C° 0.7 mm 1 mps 465 mmHg 79%
    07:00 +8°C° 0.7 mm 1 mps 465 mmHg 77%
    08:00 +8°C° 0.7 mm 1 mps 466 mmHg 76%
    09:00 +9°C° 0.5 mm 1 mps 466 mmHg 75%
    10:00 +8°C° 0.5 mm 2 mps 466 mmHg 73%
    11:00 +9°C° 0.5 mm 2 mps 466 mmHg 72%
    12:00 +9°C° 0.8 mm 2 mps 466 mmHg 73%
    13:00 +9°C° 0.8 mm 3 mps 466 mmHg 74%
    14:00 +9°C° 0.8 mm 3 mps 465 mmHg 75%
    15:00 +9°C° 0.9 mm 3 mps 465 mmHg 75%
    16:00 +9°C° 0.9 mm 3 mps 465 mmHg 76%
    17:00 +8°C° 0.9 mm 3 mps 464 mmHg 76%
    18:00 +8°C° 1 mm 3 mps 465 mmHg 79%
    19:00 +7°C° 1 mm 3 mps 465 mmHg 81%
    20:00 +7°C° 1 mm 2 mps 465 mmHg 84%
    21:00 +7°C° 0.6 mm 2 mps 465 mmHg 84%
    22:00 +7°C° 0.6 mm 2 mps 465 mmHg 85%
    23:00 +6°C° 0.6 mm 2 mps 466 mmHg 86%

    24 December, Sunday

    Time Temperature Precipitation Wind Pressure Humidity
    00:00 +6°C° 0.8 mm 2 mps 465 mmHg 87%
    01:00 +6°C° 0.8 mm 2 mps 465 mmHg 88%
    02:00 +6°C° 0.8 mm 2 mps 465 mmHg 88%
    03:00 +7°C° 0.9 mm 1 mps 465 mmHg 88%
    04:00 +7°C° 0.9 mm 1 mps 465 mmHg 88%
    05:00 +7°C° 0.9 mm 1 mps 465 mmHg 88%
    06:00 +7°C° 0.8 mm 1 mps 465 mmHg 87%
    07:00 +7°C° 0.8 mm 1 mps 466 mmHg 86%
    08:00 +7°C° 0.8 mm 1 mps 466 mmHg 85%
    09:00 +7°C° 0.4 mm 2 mps 466 mmHg 82%
    10:00 +7°C° 0.4 mm 2 mps 467 mmHg 78%
    11:00 +8°C° 0.4 mm 2 mps 467 mmHg 75%
    12:00 +8°C° 0.4 mm 2 mps 467 mmHg 74%
    13:00 +9°C° 0.4 mm 3 mps 466 mmHg 73%
    14:00 +9°C° 0.4 mm 3 mps 466 mmHg 72%
    15:00 +9°C° 0.6 mm 3 mps 466 mmHg 74%
    16:00 +9°C° 0.6 mm 3 mps 465 mmHg 75%
    17:00 +8°C° 0.6 mm 2 mps 465 mmHg 76%
    18:00 +8°C° 0.6 mm 2 mps 465 mmHg 79%
    19:00 +8°C° 0.6 mm 2 mps 465 mmHg 81%
    20:00 +7°C° 0.6 mm 2 mps 465 mmHg 84%
    21:00 +7°C° 0.3 mm 2 mps 465 mmHg 85%
    22:00 +7°C° 0.3 mm 2 mps 466 mmHg 86%
    23:00 +7°C° 0.3 mm 2 mps 466 mmHg 87%
    Show more